www.pogodaiklimat.ru

Погода и климат >> Архив погоды >> Дания >> Kegnaes


ПОГОДА в Kegnaes

  • Прогноз погоды в Kegnaes
  • Монитор погоды в Kegnaes
  • Климат города

АРХИВ ПОГОДЫ в Kegnaes

Время (UTC), дата Ветер
(напр.,м/с)
 
Видим.   Явления Облачность Т
(С)
Тd
(С)
f
(%)
Тe
(С)
Тes
(С)
Комфортность P
(гПа)
Po
(гПа)
Тmin
(С)
Tmax
(С)
R
(мм)
R24
(мм)
S
(см)
01 14.05 СВ 6 25 км ясно +12.5 +9.9 84 +10 +10 1015.9 1013.6
03 14.05 СВ 6 26 км ясно +12.4 +9.9 85 +10 +10 1016.0 1013.7
04 14.05 СВ 5 24 км ясно +12.3 +10.0 86 +10 +10 1016.4 1014.1
05 14.05 СВ 5 27 км ясно +13.1 +10.5 84 +11 +12 1016.7 1014.5
06 14.05 СВ 5 30 км ясно +14.1 +11.1 82 +12 +14 1016.9 1014.6 +11.9 +15.4
07 14.05 СВ 5 30 км ясно +14.9 +11.2 79 +13 +16 1017.3 1015.1
08 14.05 СВ 6 30 км ясно +16.2 +11.7 75 +15 +19 1017.5 1015.3
09 14.05 СВ 5 40 км ясно +16.7 +11.3 70 +16 +22 1017.7 1015.5
10 14.05 СВ 4 30 км ясно +17.1 +12.0 72 +17 +26 1017.8 1015.6
11 14.05 В 6 30 км ясно +17.2 +11.2 68 +16 +23 1018.1 1015.9
12 14.05 В 6 27 км ясно +17.5 +11.4 67 +17 +23 1018.3 1016.0
13 14.05 СВ 8 30 км ясно +17.6 +12.1 70 +17 +19 1018.2 1015.9
14 14.05 В 8 26 км ясно +16.9 +12.0 73 +16 +18 1018.1 1015.8
15 14.05 СВ 9 35 км ясно +17.3 +11.9 71 +16 +17 1018.1 1015.8
16 14.05 СВ 8 30 км ясно +17.9 +12.1 69 +17 +18 1017.9 1015.7
17 14.05 СВ 6 30 км ясно +18.5 +12.7 69 +18 +19 1017.8 1015.6
18 14.05 СВ 5 35 км ясно +17.8 +12.5 71 +17 +18 1017.8 1015.6 +14.0 +18.8
19 14.05 СВ 6 35 км ясно +16.8 +11.6 71 +16 +16 1018.1 1015.9
20 14.05 СВ 7 35 км ясно +15.1 +11.6 80 +13 +13 1018.7 1016.4
21 14.05 СВ 6 30 км ясно +15.5 +11.2 76 +14 +14 1018.9 1016.6
22 14.05 В 4 26 км ясно +14.9 +11.7 81 +14 +14 1019.2 1017.0
23 14.05 В 4 27 км ясно +14.4 +10.6 78 +13 +13 1019.4 1017.1
00 15.05 СВ 4 35 км ясно +14.9 +9.7 71 +14 +14 1019.2 1016.9
01 15.05 СВ 4 19 км ясно +13.7 +10.5 81 +12 +12 1019.1 1016.8
02 15.05 СВ 4 23 км ясно +13.5 +10.2 80 +12 +12 1018.9 1016.6
03 15.05 С 3 24 км ясно +12.6 +9.5 81 +11 +11 1018.7 1016.4
04 15.05 СВ 5 35 км ясно +13.6 +8.0 69 +12 +12 1018.7 1016.4
05 15.05 СВ 1 30 км ясно +14.2 +9.0 71 +15 +17 1018.9 1016.7
06 15.05 СВ 3 30 км ясно +14.4 +9.7 73 +13 +16 1019.0 1016.7 +12.5 +17.8
07 15.05 СВ 3 30 км ясно +14.6 +9.8 73 +14 +18 1019.2 1016.9
08 15.05 СВ 2 30 км ясно +15.7 +10.3 70 +16 +24 1019.2 1017.0
09 15.05 СВ 3 30 км ясно +16.2 +10.6 69 +16 +27 1019.5 1017.2
10 15.05 СВ 3 20 км ясно +16.8 +10.8 68 +17 +28 1019.4 1017.2
11 15.05 В 2 30 км ясно +17.1 +10.7 66 +17 +32 опасность
простуды
1019.1 1016.9
12 15.05 В 2 21 км ясно +18.0 +11.6 66 +19 +35 опасность
простуды
1018.9 1016.7
13 15.05 СВ 1 26 км ясно +18.6 +10.7 60 +20 +36 опасность
простуды
1018.7 1016.4
14 15.05 ЮВ 1 24 км ясно +20.4 +13.1 63 +24 +36 комфорт 1018.2 1016.0
15 15.05 В 1 25 км ясно +20.8 +9.9 50 +24 +34 комфорт 1017.6 1015.4
16 15.05 З 1 29 км ясно +19.8 +13.3 66 +23 +28 комфорт 1016.9 1014.7
17 15.05 СЗ 3 25 км 1/0
[]
+19.9 +10.9 56 +22 +24 комфорт 1016.6 1014.4
18 15.05 23 км 6/0 2000 м
[]
+19.9 +10.8 56 1016.3 1014.1 +14.3 +21.2
19 15.05 С 4 19 км ясно +18.5 +8.4 52 +19 +19 1016.6 1014.3
20 15.05 СВ 5 17 км ясно +17.9 +8.3 53 +18 +18 1016.8 1014.5
21 15.05 СВ 5 17 км ясно +17.0 +8.0 55 +16 +16 1016.8 1014.6
22 15.05 СВ 4 16 км ясно +16.5 +7.9 57 +16 +16 1017.0 1014.8
23 15.05 17 км ясно +15.6 +8.3 62 1016.8 1014.6
00 16.05 С 3 13 км ясно +15.4 +7.1 58 +15 +15 1016.4 1014.2
01 16.05 С 3 18 км ясно +14.7 +8.8 68 +14 +14 1016.1 1013.8
02 16.05 СЗ 4 17 км ясно +14.1 +9.0 71 +13 +13 1015.8 1013.6
03 16.05 СЗ 5 11 км ясно +13.5 +8.9 74 +12 +12 1015.5 1013.3
04 16.05 СЗ 4 15 км ясно +14.0 +8.2 68 +13 +13 1015.4 1013.1
05 16.05 СЗ 4 15 км 1/0 2000 м
[]
+14.6 +9.2 70 +14 +14 1015.3 1013.1
06 16.05 С 3 13 км 1/0 2000 м
[]
+15.9 +10.2 69 +15 +18 1015.4 1013.2 +13.4 +19.9
07 16.05 С 3 13 км 1/0 2000 м
[]
+17.8 +10.3 61 +18 +22 1015.6 1013.4
08 16.05 С 5 14 км ясно +18.0 +10.3 61 +18 +23 1015.8 1013.6
09 16.05 С 4 25 км слаб. ливневой дождь 1/0
[]
+17.3 +11.2 67 +17 +24 1015.8 1013.6 0.0
10 16.05 С 5 30 км {ливн. осадки} 1/0
[]
+18.2 +11.8 66 +18 +26 1016.0 1013.8
11 16.05 С 5 21 км {ливн. осадки, дождь} ясно +19.3 +13.3 68 +20 +29 1015.6 1013.4
12 16.05 С 6 24 км {ливн. осадки, дождь} ясно +19.9 +12.7 63 +21 +27 комфорт 1015.5 1013.3 0.0
13 16.05 С 4 35 км ясно +20.7 +12.0 57 +23 +32 комфорт 1015.4 1013.2
14 16.05 С 3 30 км ясно +21.3 +12.8 58 +24 +33 комфорт 1015.4 1013.2
15 16.05 С 3 40 км ясно +23.0 +12.3 51 +26 +32 жарко 1015.0 1012.8
16 16.05 С 5 45 км ясно +22.6 +11.7 50 +25 +28 комфорт 1014.7 1012.5
17 16.05 СЗ 5 30 км ясно +20.0 +10.9 56 +21 +23 комфорт 1014.9 1012.7
18 16.05 СЗ 7 35 км ясно +18.4 +9.0 54 +18 +18 1015.0 1012.8 +15.8 +23.8
19 16.05 СЗ 6 35 км ясно +16.5 +8.7 60 +16 +16 1015.6 1013.4
20 16.05 СЗ 5 21 км ясно +14.4 +10.1 75 +13 +13 1015.9 1013.7
21 16.05 СЗ 4 19 км ясно +12.5 +9.4 81 +11 +11 1016.4 1014.1
22 16.05 СЗ 4 16 км ясно +10.7 +8.5 86 +8 +8 1016.7 1014.4
23 16.05 СЗ 5 14 км ясно +9.9 +8.1 89 +7 +7 1016.4 1014.1
00 17.05 СЗ 5 11 км ясно +9.0 +7.7 92 +5 +5 1016.0 1013.7
01 17.05 СЗ 5 10 км ясно +8.6 +7.3 92 +5 +5 1016.0 1013.7
02 17.05 З 5 10 км 1/1 240 м
[]
+8.3 +7.0 92 +5 +5 1015.8 1013.5
03 17.05 З 3 8000 м дымка ясно +8.0 +6.8 92 +5 +5 1015.5 1013.2
04 17.05 З 5 9000 м дымка 6/6 210 м
[]
+7.9 +6.6 91 +4 +4 1015.4 1013.1
05 17.05 СЗ 5 9000 м дымка 9/9 150 м
[]
+7.9 +6.6 91 +4 +4 1015.4 1013.1
06 17.05 СЗ 5 9000 м дымка 10/10 210 м
[]
+9.3 +7.5 89 +6 +6 1015.4 1013.1 +7.8 +18.4
07 17.05 З 4 9000 м дымка 9/9 270 м
[]
+10.5 +8.1 85 +8 +8 1015.4 1013.1
08 17.05 З 4 10 км {дымка} 4/4 360 м
[]
+12.1 +8.5 79 +10 +14 1015.5 1013.2
09 17.05 З 5 11 км {дымка} ясно +14.1 +10.0 76 +12 +18 1015.6 1013.3
10 17.05 З 4 11 км ясно +16.0 +10.5 70 +15 +24 1015.7 1013.5
11 17.05 З 4 12 км ясно +16.8 +11.7 72 +16 +26 1015.6 1013.4
12 17.05 З 4 12 км {дымка} ясно +18.0 +11.6 66 +18 +29 1015.5 1013.3
13 17.05 З 4 13 км ясно +18.2 +12.4 69 +18 +27 1015.5 1013.2
14 17.05 ЮЗ 4 14 км ясно +17.6 +12.9 74 +17 +24 1015.2 1013.0
15 17.05 З 4 13 км ясно +17.7 +13.0 74 +17 +23 1015.0 1012.8
16 17.05 ЮЗ 5 13 км ясно +17.0 +12.9 77 +16 +19 1014.9 1012.6
17 17.05 ЮЗ 6 13 км ясно +16.7 +12.6 77 +16 +17 1014.9 1012.7
18 17.05 ЮЗ 6 11 км ясно +16.1 +12.4 79 +15 +15 1015.0 1012.7 +9.2 +19.8
19 17.05 ЮЗ 6 13 км ясно +15.4 +12.4 82 +14 +14 1015.3 1013.1
20 17.05 З 5 9000 м дымка ясно +14.6 +12.6 88 +13 +13 1015.9 1013.6
21 17.05 СЗ 2 15 км ясно +14.3 +12.1 87 +14 +14 1016.0 1013.8
22 17.05 СЗ 3 12 км ясно +13.8 +11.6 87 +13 +13 1016.2 1013.9
23 17.05 СЗ 4 20 км ясно +13.4 +11.5 88 +12 +12 1016.4 1014.1
00 18.05 СЗ 4 22 км ясно +12.3 +10.2 87 +10 +10 1016.4 1014.2
01 18.05 СЗ 5 21 км ясно +11.5 +9.2 86 +9 +9 1016.5 1014.2
02 18.05 СЗ 4 16 км ясно +10.3 +8.5 89 +8 +8 1016.7 1014.4
03 18.05 СЗ 4 17 км ясно +9.9 +8.2 89 +7 +7 1017.0 1014.7
04 18.05 З 4 16 км ясно +9.5 +8.1 91 +7 +7 1017.0 1014.7
05 18.05 СЗ 4 16 км ясно +10.0 +7.9 87 +7 +8 1017.2 1014.9
06 18.05 З 2 16 км ясно +11.5 +8.8 83 +10 +14 1017.4 1015.2 +9.4 +16.2
07 18.05 З 4 15 км ясно +11.9 +9.1 83 +10 +14 1017.8 1015.5
08 18.05 З 4 13 км ясно +14.7 +10.6 76 +13 +19 1017.9 1015.6
09 18.05 З 4 15 км ясно +16.1 +11.7 75 +15 +23 1018.1 1015.9
10 18.05 З 4 16 км ясно +17.7 +12.0 69 +17 +27 1018.5 1016.3
11 18.05 З 5 15 км ясно +17.9 +12.0 68 +18 +26 1018.5 1016.3
12 18.05 З 5 15 км 6/6 900 м
[]
+17.3 +11.9 71 +17 +20 1018.6 1016.4
13 18.05 ЮЗ 5 13 км 1/1 1050 м
[]
+17.5 +12.7 73 +17 +23 1018.7 1016.5
14 18.05 ЮЗ 6 14 км 1/1 1050 м
[]
+17.2 +12.0 71 +16 +21 1018.8 1016.6
15 18.05 З 6 13 км 1/1 1080 м
[]
+16.4 +11.7 74 +15 +18 1018.9 1016.6
16 18.05 ЮЗ 5 13 км 1/1 1020 м
[]
+15.6 +11.9 79 +14 +17 1019.0 1016.7
17 18.05 ЮЗ 6 12 км ясно +15.0 +11.5 80 +13 +14 1019.3 1017.0
18 18.05 З 6 12 км ясно +14.2 +10.9 81 +12 +13 1019.7 1017.5 +11.3 +18.5
19 18.05 З 6 12 км ясно +12.7 +10.1 84 +10 +10 1020.3 1018.0
20 18.05 З 7 12 км ясно +11.5 +9.2 86 +8 +8 1020.7 1018.4
21 18.05 ЮЗ 5 12 км 4/4 1000 м
[]
+11.3 +9.2 87 +9 +9 1020.9 1018.6
22 18.05 З 5 14 км 6/6 660 м
[]
+10.9 +9.1 89 +8 +8 1021.3 1019.0
23 18.05 З 3 11 км 9/9 840 м
[]
+10.8 +9.1 89 +9 +9 1021.3 1019.0
00 19.05 ЮЗ 5 11 км 4/4 240 м
[]
+10.5 +8.9 90 +8 +8 1021.4 1019.1
01 19.05 З 3 9000 м дымка 9/9 210 м
[]
+10.1 +8.7 91 +8 +8 1021.6 1019.3
02 19.05 З 1 13 км 10/10 210 м
[]
+10.2 +8.6 90 +10 +10 1021.9 1019.6
03 19.05 Ю 3 11 км 10/10 210 м
[]
+10.2 +8.8 91 +8 +8 1021.8 1019.5
04 19.05 ЮЗ 3 11 км 9/9 210 м
[]
+10.1 +8.6 90 +8 +8 1022.1 1019.8
05 19.05 ЮЗ 2 12 км 4/4 210 м
[]
+10.4 +8.8 90 +9 +10 1022.3 1020.0
06 19.05 ЮЗ 2 13 км {дымка} 1/1 210 м
[]
+10.8 +8.7 87 +9 +12 1022.9 1020.6 +10.0 +14.2
07 19.05 З 2 13 км 6/6 210 м
[]
+11.7 +9.0 83 +11 +14 1023.4 1021.1
08 19.05 ЮЗ 1 14 км 6/6 240 м
[]
+11.9 +9.0 82 +12 +16 1023.8 1021.5
09 19.05 Ю 1 13 км ясно +13.1 +9.6 79 +14 +29 опасность
простуды
1024.1 1021.8
10 19.05 Ю 1 12 км 1/1 1260 м
[]
+13.6 +9.5 76 +14 +29 опасность
простуды
1024.2 1022.0
11 19.05 В 2 10 км 1/1 1000 м
[]
+12.8 +9.8 82 +12 +25 опасность
простуды
1024.5 1022.2
12 19.05 В 2 12 км ясно +13.4 +10.2 81 +13 +27 опасность
простуды
1024.3 1022.1
13 19.05 В 2 14 км ясно +14.3 +10.5 78 +14 +29 опасность
простуды
1024.3 1022.1
14 19.05 ЮВ 2 11 км ясно +15.1 +11.0 76 +15 +27 опасность
простуды
1024.4 1022.1
15 19.05 В 1 14 км ясно +14.7 +10.6 76 +15 +24 1024.2 1021.9
16 19.05 В 1 13 км ясно +14.8 +10.9 77 +15 +21 1024.0 1021.8
17 19.05 ЮВ 2 15 км ясно +14.8 +10.1 73 +15 +18 1023.9 1021.6
18 19.05 ЮВ 2 19 км ясно +14.5 +9.9 74 +14 +15 1023.9 1021.6 +10.8 +16.0
19 19.05 В 2 18 км ясно +14.5 +10.8 78 +14 +14 1024.2 1021.9
20 19.05 В 2 21 км ясно +14.5 +10.6 77 +14 +14 1024.6 1022.4
21 19.05 В 3 н/о ясно +14.3 +8.4 68 +14 +14 1025.1 1022.8
22 19.05 В 2 20 км ясно +14.7 +8.7 67 +15 +15 1025.4 1023.1
23 19.05 В 3 16 км ясно +13.9 +8.8 71 +13 +13 1025.7 1023.4
00 20.05 В 3 15 км ясно +14.3 +11.0 81 +13 +13 1026.0 1023.7
01 20.05 ЮВ 4 20 км ясно +14.0 +10.4 79 +13 +13 1026.2 1023.9
02 20.05 ЮВ 2 19 км ясно +13.4 +10.2 81 +13 +13 1026.3 1024.1
03 20.05 ЮВ 3 19 км ясно +13.7 +9.4 75 +13 +13 1026.3 1024.0
04 20.05 ЮВ 3 19 км ясно +13.7 +8.8 72 +13 +13 1026.4 1024.1
05 20.05 ЮВ 4 17 км ясно +13.9 +8.5 70 +13 +14 1026.7 1024.4
06 20.05 В 4 16 км ясно +14.2 +9.4 73 +13 +15 1027.2 1024.9 +13.1 +15.3
07 20.05 В 3 16 км ясно +14.3 +9.7 74 +13 +18 1027.7 1025.4
08 20.05 ЮВ 5 30 км ясно +14.4 +9.0 70 +13 +18 1028.1 1025.8
09 20.05 ЮВ 4 27 км ясно +14.9 +8.7 66 +14 +23 1028.3 1026.0
10 20.05 В 4 21 км ясно +15.0 +9.0 67 +14 +24 1028.4 1026.1
11 20.05 В 4 24 км ясно +15.1 +8.5 65 +14 +24 1028.4 1026.1
12 20.05 В 5 28 км ясно +15.5 +8.6 63 +14 +23 1028.1 1025.8
13 20.05 В 5 25 км ясно +15.7 +9.1 65 +15 +22 1027.9 1025.7
14 20.05 В 5 28 км ясно +16.0 +7.8 58 +15 +21 1027.5 1025.2
15 20.05 В 5 28 км ясно +16.2 +7.5 56 +15 +19 1027.1 1024.8
16 20.05 В 4 24 км ясно +15.9 +8.7 62 +15 +18 1026.6 1024.3
17 20.05 В 4 27 км ясно +15.6 +10.0 69 +15 +16 1026.1 1023.9
18 20.05 В 6 26 км ясно +15.2 +11.1 77 +14 +14 1025.9 1023.7 +14.0 +16.2
19 20.05 В 5 21 км ясно +15.0 +10.6 75 +14 +14 1026.1 1023.8
20 20.05 В 8 23 км ясно +14.9 +9.7 71 +13 +13 1026.3 1024.0
21 20.05 В 8 23 км ясно +14.4 +7.8 65 +12 +12 1026.4 1024.1
22 20.05 В 9 27 км ясно +13.8 +6.9 63 +11 +11 1026.4 1024.1
23 20.05 В 8 26 км ясно +12.8 +7.9 72 +10 +10 1026.6 1024.3
00 21.05 В 8 30 км ясно +12.7 +8.6 76 +10 +10 1026.4 1024.1

 

Местоположение метеостанции Kegnaes (Дания): широта 54.85 долгота 9.98 высота над уровнем моря 17 м.

В архиве по умолчанию представлена погода в Kegnaes за последнюю неделю. Архивные данные за месяц целиком и за предыдущие месяцы, начиная с января 2011 года, Вы можете получить, выбрав интересующий диапазон дат из раскрывающегося списка и нажав кнопку "Ввод!".


*Определитесь, кто Вы:
робот инопланетянин человек

Внимание! Время в таблицах - всемирное. Для получения местного времени необходимо прибавить поправку, которая в Kegnaes равна 1 ч.

Смотрите также архив погоды в соседних городах и на ближайших метеорологических станциях:

Погода в Olpenitz (Германия) (20 км)
Погода в Gluecksburg (Германия) (31 км)
Погода в Taasinge (Дания) (42 км)
Погода в Leuchtturm Kiel (Германия) (43 км)
Погода в Toroe (Дания) (45 км)
Погода в Schleswig (Германия) (45 км)
Погода в Schleswig Airport (Германия) (52 км)
Погода в Kiel-Holtenau (Германия) (53 км)
Погода в Arslev (Дания) (59 км)
Погода в Skrydstrup (Дания) (62 км)

Пояснения к столбцам:

Ветер - указаны скорость ветра в м/с - средняя за 10 мин, порывы в срок и между сроками (в фигурных скобках) и направление, откуда дует ветер: С - северный, СВ - северо-восточный, В - восточный, ЮВ - юго-восточный, Ю - южный, ЮЗ - юго-западный, З - западный, СЗ - северо-западный.
Видимость - горизонтальная дальность видимости в метрах или километрах. При видимости от 1 до 10 км при отсутствии осадков обычно наблюдается дымка, при ухудшении видимости до 1 км и менее - туман. В сухую погоду видимость может ухудшаться дымом, пылью или мглою.
Явления - указаны атмосферные явления, наблюдавшиеся в срок или в последний час перед сроком; фигурными скобками обозначены явления, наблюдавшиеся между сроками (за 1-3 часа до срока); квадратными скобками обозначены град или гололедные отложения с указанием их диаметра в мм.
Облачность - указаны через наклонную черту общая и нижняя облачность в баллах и высота нижней границы облаков в метрах; квадратными скобками обозначены формы облаков: Ci - перистые, Cs - перисто-слоистые, Cc - перисто-кучевые, Ac - высококучевые, As - высокослоистые, Sc - слоисто-кучевые, Ns - слоисто-дождевые, Cu - кучевые, Cb - кучево-дождевые. Подробнее классификацию облаков см. в Атласе облаков (PDF).
T - Температура воздуха - температура, измеренная на высоте 2 м над землей.
Td - Температура точки росы - температура, при понижении до которой содержащийся в воздухе водяной пар достигнет насыщения.
f - Относительная влажность воздуха - влажноcть воздуха, измеренная на высоте 2 м над землей.
Te - Эффективная температура - температура, которую ощущает одетый по сезону человек в тени. Характеристика душности погоды. При расчете учитывается влияние влажности воздуха и скорости ветра на теплоощущения человека.
Tes - Эффективная температура на солнце - температура, которую ощущает человек, с поправкой на солнечный нагрев. Характеристика знойности погоды. Зависит от высоты солнца над горизонтом, облачности и скорости ветра. Ночью, в пасмурную погоду, а также при ветре 12 м/с и более поправка равна нулю.
P - Атмосферное давление - приведенное к уровню моря атмосферное давление.
Po - Атмосферное давление - измеренное на уровне метеостанции атмосферное давление.
Tmin - Минимальная температура - минимум температуры воздуха на высоте 2 м над землей.
Tmax - Максимальная температура - максимум температуры воздуха на высоте 2 м над землей.
R - Количество осадков - Количество выпавших осадков за период времени, мм. При наведении курсора мыши на число - период времени, за который выпало указанное количество осадков.
R24 - Количество осадков - Количество выпавших осадков за 24 часа, мм.
S - Снежный покров - Высота снежного покрова, см. При наведении курсора мыши на число - состояние снежного покрова и степень покрытия местности в баллах.